Location: Overspoor
(51.4747°N, 5.6641°E)
Time: 00:15:26
(UTC+02:00)

KKS-1 - Pass Details

Date: 03 July 2022
Orbit: 635 x 648 km, 98.2° (Epoch: 07 August)

Event Time Altitude Azimuth Distance (km) Brightness Sun altitude
Rises 01:43:54 0° 0° (N) 2,979 ? -15.5°
Reaches altitude 10° 01:47:26 10° 331° (NNW) 2,061 ? -15.5°
Maximum altitude 01:49:10 12° 308° (NW) 1,915 ? -15.5°
Drops below altitude 10° 01:50:54 10° 285° (WNW) 2,054 ? -15.5°
Sets 01:54:25 0° 255° (WSW) 2,956 ? -15.5°
